This is the latest recevied weather packets stored in our database for station/object VK5KX. If no packets are shown the sender has not sent any weather packets the latest 10 day(s).
| Time | Temp. | Humidity | Pressure | Rain* | Wind** | Luminosity | Snow |
|---|---|---|---|---|---|---|---|
| 1777975230 | 14.44° C | 80% | 1024.7 hPa | 0 mm | - | - | - |
| 1777974331 | 13.89° C | 80% | 1024.7 hPa | 0 mm | - | - | - |
| 1777973427 | 14.44° C | 78% | 1024.5 hPa | 0 mm | - | - | - |
| 1777972526 | 14.44° C | 76% | 1024.4 hPa | 0 mm | - | - | - |
| 1777971626 | 14.44° C | 75% | 1024.2 hPa | 0 mm | - | - | - |
| 1777970734 | 15° C | 74% | 1024.1 hPa | 0 mm | - | - | - |
| 1777969825 | 15° C | 72% | 1023.9 hPa | 0 mm | - | - | - |
| 1777968923 | 15.56° C | 71% | 1023.7 hPa | 0 mm | - | - | - |
| 1777968023 | 15.56° C | 68% | 1023.6 hPa | 0 mm | - | - | - |
| 1777967123 | 16.11° C | 67% | 1023.6 hPa | 0 mm | - | - | - |
| 1777966233 | 16.67° C | 66% | 1023.5 hPa | 0 mm | - | - | - |
| 1777965322 | 16.67° C | 67% | 1023.5 hPa | 0 mm | - | - | - |
| 1777964434 | 16.67° C | 68% | 1023.5 hPa | 0 mm | - | - | - |
| 1777963523 | 16.67° C | 67% | 1023.4 hPa | 0 mm | - | - | - |
| 1777962622 | 17.22° C | 65% | 1023.4 hPa | 0 mm | - | - | - |
| 1777961724 | 17.78° C | 66% | 1023.3 hPa | 0 mm | - | - | - |
| 1777960818 | 17.78° C | 62% | 1023.2 hPa | 0 mm | - | - | - |
| 1777959918 | 17.78° C | 61% | 1023.2 hPa | 0 mm | - | - | - |
| 1777959020 | 17.78° C | 60% | 1023 hPa | 0 mm | - | - | - |
| 1777958120 | 17.22° C | 63% | 1023 hPa | 0 mm | - | - | - |
| 1777957216 | 17.22° C | 63% | 1022.9 hPa | 0 mm | - | - | - |
| 1777956321 | 17.78° C | 64% | 1022.8 hPa | 0 mm | - | - | - |
| 1777955413 | 17.78° C | 64% | 1022.9 hPa | 0 mm | - | - | - |
| 1777954522 | 17.22° C | 65% | 1022.9 hPa | 0 mm | - | - | - |
| 1777953611 | 17.22° C | 63% | 1023 hPa | 0 mm | - | - | - |
* Rain latest hour (hover to see other rain measurements)
** Current wind speed in m/s (hover to see current wind gust speed)